This is the latest recevied weather packets stored in our database for station/object K4CRS-13. If no packets are shown the sender has not sent any weather packets the latest 10 day(s).
| Time | Temp. | Humidity | Pressure | Rain* | Wind** | Luminosity | Snow |
|---|---|---|---|---|---|---|---|
| 1777827221 | 17.78° C | 41% | 1057.1 hPa | 0 mm | - | 826 W/m² | - |
| 1777826917 | 17.78° C | 39% | 1057.1 hPa | 0 mm | - | 818 W/m² | - |
| 1777826614 | 17.78° C | 43% | 1057.2 hPa | 0 mm | - | 819 W/m² | - |
| 1777826310 | 17.22° C | 40% | 1057.2 hPa | 0 mm | - | 814 W/m² | - |
| 1777826008 | 17.22° C | 42% | 1057.2 hPa | 0 mm | - | 806 W/m² | - |
| 1777825705 | 17.78° C | 42% | 1057.4 hPa | 0 mm | - | 799 W/m² | - |
| 1777825403 | 17.22° C | 43% | 1057.5 hPa | 0 mm | - | 792 W/m² | - |
| 1777825100 | 17.78° C | 45% | 1057.4 hPa | 0 mm | - | 788 W/m² | - |
| 1777824795 | 17.22° C | 47% | 1057.3 hPa | 0 mm | - | 783 W/m² | - |
| 1777824493 | 16.67° C | 42% | 1057.3 hPa | 0 mm | - | 774 W/m² | - |
| 1777824188 | 17.22° C | 46% | 1057.3 hPa | 0 mm | - | 765 W/m² | - |
| 1777823884 | 17.22° C | 50% | 1057.5 hPa | 0 mm | - | 757 W/m² | - |
| 1777823582 | 16.67° C | 49% | 1057.5 hPa | 0 mm | - | 748 W/m² | - |
| 1777823279 | 16.67° C | 50% | 1057.2 hPa | 0 mm | - | 738 W/m² | - |
| 1777822976 | 15.56° C | 50% | 1057.6 hPa | 0 mm | - | 732 W/m² | - |
| 1777822674 | 15.56° C | 48% | 1057.5 hPa | 0 mm | - | 719 W/m² | - |
| 1777822372 | 17.22° C | 51% | 1057.5 hPa | 0 mm | - | 709 W/m² | - |
| 1777822069 | 16.11° C | 47% | 1057.4 hPa | 0 mm | - | 696 W/m² | - |
| 1777821767 | 15.56° C | 51% | 1057.6 hPa | 0 mm | - | 688 W/m² | - |
| 1777821464 | 16.11° C | 50% | 1057.6 hPa | 0 mm | - | 677 W/m² | - |
| 1777821162 | 15.56° C | 52% | 1057.5 hPa | 0 mm | - | 666 W/m² | - |
| 1777820858 | 15.56° C | 51% | 1057.6 hPa | 0 mm | - | 653 W/m² | - |
| 1777820554 | 15.56° C | 50% | 1057.6 hPa | 0 mm | - | 641 W/m² | - |
| 1777820251 | 15.56° C | 50% | 1057.6 hPa | 0 mm | - | 628 W/m² | - |
| 1777819949 | 15.56° C | 46% | 1057.6 hPa | 0 mm | - | 613 W/m² | - |
* Rain latest hour (hover to see other rain measurements)
** Current wind speed in m/s (hover to see current wind gust speed)